EW2493 Weather Reports


Display with metric or nautical units.
time (UTC)temp
F
wind
direction
speed
MPH
gust
MPH
rain 1hr
in
rain 24hr
in
rain mn
in
humidity
%
barometer
mb
20260502211523 73 287 13.0 22.0 0.00 0.00 0.00 27 1001.7
20260502210019 73 268 8.0 16.0 0.00 0.00 0.00 26 1001.9
20260502204518 73 301 10.0 19.0 0.00 0.00 0.00 24 1002.1
20260502203016 75 249 6.0 15.0 0.00 0.00 0.00 24 1002.2
20260502201524 72 355 7.0 15.0 0.00 0.00 0.00 25 1002.6
20260502200010 72 291 6.0 16.0 0.00 0.00 0.00 25 1002.9
20260502194507 71 245 7.0 17.0 0.00 0.00 0.00 26 1003.4
20260502193006 72 301 7.0 20.0 0.00 0.00 0.00 24 1003.6
20260502191502 71 216 9.0 18.0 0.00 0.00 0.00 26 1003.9
20260502190059 70 252 6.0 17.0 0.00 0.00 0.00 26 1004.3
20260502184603 70 204 8.0 20.0 0.00 0.00 0.00 27 1004.5
20260502183056 68 201 7.0 19.0 0.00 0.00 0.00 26 1004.9
20260502181556 68 206 7.0 18.0 0.00 0.00 0.00 23 1005.2
20260502163033 65 230 10.0 20.0 0.00 0.00 0.00 30 1007.3
20260502161532 63 294 9.0 20.0 0.00 0.00 0.00 33 1007.7
20260502151520 61 281 16.0 26.0 0.00 0.00 0.00 39 1008.7
20260502123041 35 176 0.0 2.0 0.00 0.00 0.00 85 1010.2
20260502121539 33 164 0.0 1.0 0.00 0.00 0.00 85 1010.2
20260502120138 32 161 0.0 2.0 0.00 0.00 0.00 85 1010.3
20260502114538 30 205 1.0 4.0 0.00 0.00 0.00 85 1010.2
20260502113043 30 180 2.0 6.0 0.00 0.00 0.00 85 1010.3
20260502111535 30 190 3.0 6.0 0.00 0.00 0.00 85 1010.2
20260502110036 30 187 3.0 6.0 0.00 0.00 0.00 85 1010.3
20260502104534 30 210 2.0 5.0 0.00 0.00 0.00 85 1010.5
20260502103027 29 167 2.0 4.0 0.00 0.00 0.00 85 1010.8
20260502101527 29 160 1.0 3.0 0.00 0.00 0.00 84 1011.0
20260502091516 33 196 1.0 3.0 0.00 0.00 0.00 79 1011.3
20260502064547 36 162 0.0 3.0 0.00 0.00 0.00 72 1012.9
20260502063038 37 231 0.0 2.0 0.00 0.00 0.00 69 1013.0
20260502061537 38 220 0.0 3.0 0.00 0.00 0.00 69 1012.9
20260502060041 38 218 0.0 3.0 0.00 0.00 0.00 68 1013.1
20260502054541 38 145 0.0 3.0 0.00 0.00 0.00 65 1013.2
20260502053026 41 230 0.0 4.0 0.00 0.00 0.00 61 1013.3
20260502051524 42 235 2.0 7.0 0.00 0.00 0.00 59 1013.1
20260502050021 42 204 5.0 8.0 0.00 0.00 0.00 58 1013.1
20260502044519 42 150 2.0 7.0 0.00 0.00 0.00 60 1013.1
20260502043018 42 209 3.0 6.0 0.00 0.00 0.00 60 1013.2
20260502041529 42 184 2.0 7.0 0.00 0.00 0.00 61 1013.3
20260502040037 41 200 1.0 4.0 0.00 0.00 0.00 62 1013.3
20260502034516 42 168 1.0 4.0 0.00 0.00 0.00 60 1013.2
20260502033026 43 162 2.0 4.0 0.00 0.00 0.00 56 1013.4
20260502031515 44 168 1.0 3.0 0.00 0.00 0.00 55 1013.5
20260502030015 45 168 2.0 4.0 0.00 0.00 0.00 54 1013.5
20260502024514 45 168 0.0 2.0 0.00 0.00 0.00 55 1013.4
20260502023026 46 167 1.0 2.0 0.00 0.00 0.00 56 1013.2
20260502021512 47 43 0.0 0.0 0.00 0.00 0.00 49 1013.1
20260502020013 49 43 0.0 0.0 0.00 0.00 0.00 45 1012.9
20260502014511 52 43 0.0 0.0 0.00 0.00 0.00 41 1012.8
20260502013011 55 42 0.0 0.0 0.00 0.00 0.00 39 1012.7
20260502011618 56 42 0.0 1.0 0.00 0.00 0.00 39 1012.7
20260502010013 56 41 0.0 3.0 0.00 0.00 0.00 36 1012.7
20260502004510 56 38 2.0 5.0 0.00 0.00 0.00 34 1012.7
20260502003009 57 14 4.0 5.0 0.00 0.00 0.00 34 1012.7
20260502001510 57 28 3.0 7.0 0.00 0.00 0.00 34 1012.7
20260502000007 57 40 5.0 8.0 0.00 0.00 0.00 34 1012.7
20260501234511 57 325 2.0 5.0 0.00 0.00 0.00 35 1012.9
20260501233004 58 29 2.0 6.0 0.00 0.00 0.00 33 1013.0
20260501231628 57 337 0.0 8.0 0.00 0.00 0.00 35 1013.1
20260501230122 56 28 5.0 9.0 0.00 0.00 0.00 35 1013.2
20260501224608 56 19 8.0 11.0 0.00 0.00 0.00 34 1013.1
20260501223058 56 328 8.0 14.0 0.00 0.00 0.00 36 1013.2
20260501221610 56 360 2.0 9.0 0.00 0.00 0.00 35 1013.2
20260501220104 56 317 5.0 11.0 0.00 0.00 0.00 35 1013.3
20260501214553 56 27 7.0 10.0 0.00 0.00 0.00 36 1013.3
20260501213051 55 318 6.0 13.0 0.00 0.00 0.00 36 1013.5